Location: Gamarra
(10.0780°N, 67.4929°W)
Time: 10:30:45
(UTC+00:00)

NOSS 3-1 (A) - Pass Details

Date: 13 April 2024
Orbit: 660 x 1550 km, 63.4° (Epoch: 15 May)

Event Time Altitude Azimuth Distance (km) Brightness Sun altitude
Rises 23:12:23 0° 178° (S) 3,063 6.0 -8.5°
Reaches altitude 10° 23:15:13 10° 162° (SSE) 2,093 5.0 -9.2°
Maximum altitude 23:18:44 21° 112° (ESE) 1,457 3.9 -10.1°
Drops below altitude 10° 23:22:14 10° 62° (ENE) 2,088 4.8 -10.9°
Sets 23:25:02 0° 46° (NE) 3,054 5.8 -11.6°
